Orbital Elements at Epoch 2459000.5 (2020-May-31.0) TDB
Reference: JPL 19 (heliocentric ecliptic J2000)
Element | Value | Uncertainty (1-sigma) | Units |
e | .1006722556468719 | 5.224e-08 | |
a | 2.198569219758924 | 9.3697e-09 | au |
q | 1.97723429721001 | 1.1882e-07 | au |
i | 6.744095996402112 | 3.7929e-06 | deg |
node | 311.1621376137797 | 3.8495e-05 | deg |
peri | 53.29115306339171 | 4.2837e-05 | deg |
M | 318.8277008105392 | 1.651e-05 | deg |
tp | 2459136.679351403122 (2020-Oct-14.17935140) | 5.4323e-05 | TDB |
period | 1190.717241209424 3.26 | 7.6118e-06 2.084e-08 | d yr |
n | .302338781652598 | 1.9327e-09 | deg/d |
Q | 2.419904142307839 | 1.0313e-08 | au |
|
| | Orbit Determination Parameters
Additional Information
|